Flag for Denmark Weather past 2 weeks in Roskilde, Denmark

Now
64 °F

Passing clouds.


Feels Like: 64 °F
Forecast: 51 / 58 °F
Wind: 9 mph from Southwest

Location: Koebenhavn / Roskilde

Current Time: Sep 4, 2015 at 3:01:46 PM

Latest Report: Sep 4, 2015 at 2:20 PM


Visibility: N/A

Pressure: 29.83 "Hg

Humidity: 52%

Dew point: 46 °F

Location of RoskildeLocation

Historic Weather in Roskilde — Graph

°F

Roskilde temperature yesterday

Maximum temperature yesterday: 64 °F (at 12:50 PM)
Minimum temperature yesterday: 48 °F (at 5:20 AM)
Average temperature yesterday: 56 °F

Past Weeks' High & Low Weather Summary

 TemperatureHumidityPressure
High73 °F (Aug 20, 1:20 PM)100% (Aug 22, 12:50 AM)30.36 "Hg (Aug 22, 12:50 AM)
Low48 °F (Sep 3, 5:20 AM)38% (Aug 20, 4:20 PM)29.65 "Hg (Aug 25, 7:20 AM)
Average62 °F80%29.97 "Hg
* Reported Aug 20 1:20 PM — Sep 4 1:50 PM, Roskilde, Weather by CustomWeather, © 2015

Note: Actual official high and low records may vary slightly from our data, if they occured in-between our weather recording intervals... More about our weather records

Advertising

Roskilde weather history for previous 24 hours

 ConditionsComfort  
Time TempWeatherWind HumidityBarometerVisibility
1:50 PM
Fri, Sep 4
63 °FScattered clouds.12 mph56%29.83 "HgN/A
1:20 PM64 °FBroken clouds.10 mph56%29.83 "HgN/A
12:50 PM63 °FPartly sunny.12 mph56%29.83 "HgN/A
12:20 PM64 °FBroken clouds.8 mph60%29.83 "HgN/A
11:50 AM61 °FPartly sunny.7 mph72%29.86 "HgN/A
11:20 AM61 °FScattered clouds.7 mph68%29.86 "HgN/A
10:50 AM59 °FScattered clouds.7 mph72%29.86 "HgN/A
10:20 AM61 °FPassing clouds.3 mph72%29.86 "HgN/A
9:50 AM59 °FPassing clouds.3 mph88%29.86 "HgN/A
9:20 AM57 °FPartly sunny.2 mph88%29.86 "Hg6 mi
8:50 AM55 °FFog.3 mph94%29.86 "Hg1 mi
8:20 AM55 °FPartly sunny.7 mph94%29.86 "Hg4 mi
7:50 AM55 °FFog.6 mph94%29.86 "Hg3 mi
7:20 AM54 °FFog.5 mph100%29.86 "Hg1 mi
6:50 AM52 °FFog.5 mph100%29.86 "Hg1 mi
6:20 AM52 °FFog.5 mph100%29.86 "Hg0 mi
5:50 AM52 °FFog.5 mph94%29.86 "Hg1 mi
5:20 AM52 °FFog.5 mph100%29.86 "Hg1 mi
4:50 AM52 °FFog.6 mph100%29.89 "Hg2 mi
4:20 AM50 °FFog.5 mph100%29.89 "Hg1 mi
3:50 AM52 °FFog.6 mph94%29.89 "Hg1 mi
3:20 AM48 °FFog.7 mph100%29.89 "Hg2 mi
2:50 AM48 °FCool.7 mph100%29.89 "Hg4 mi
2:20 AM48 °FCool.6 mph100%29.89 "Hg4 mi
1:50 AM50 °FCool.6 mph94%29.92 "Hg4 mi
1:20 AM50 °FCool.6 mph94%29.92 "HgN/A
12:50 AM50 °FCool.5 mph94%29.92 "HgN/A
12:20 AM48 °FCool.6 mph94%29.92 "HgN/A
11:20 PM
Thu, Sep 3
50 °FCool.6 mph88%29.92 "HgN/A
10:50 PM50 °FCool.5 mph88%29.92 "HgN/A
10:20 PM50 °FCool.6 mph88%29.92 "HgN/A
9:50 PM50 °FCool.6 mph88%29.92 "HgN/A
9:20 PM50 °FCool.7 mph88%29.92 "HgN/A
8:50 PM52 °FCool.6 mph88%29.92 "HgN/A
8:20 PM52 °FCool.7 mph88%29.89 "HgN/A
7:50 PM55 °FCool.7 mph77%29.89 "HgN/A
7:20 PM57 °FCool.8 mph72%29.89 "HgN/A
6:50 PM59 °FCool.12 mph68%29.89 "HgN/A
6:20 PM61 °FCool.10 mph63%29.89 "HgN/A
5:20 PM61 °FPassing clouds.13 mph59%29.89 "HgN/A
4:50 PM61 °FBroken clouds.14 mph63%29.89 "HgN/A
4:20 PM61 °FPartly sunny.14 mph59%29.89 "HgN/A
3:50 PM61 °FPassing clouds.13 mph63%29.89 "HgN/A
3:20 PM63 °FPartly sunny.10 mph56%29.92 "HgN/A
Weather by CustomWeather, © 2015

See weather overviewHow to use our weather pages